Overview Statistics Trail Chart Weather Telemetry Raw packets
 

This is the latest recevied weather packets stored in our database for station/object K5FEP. If no packets are shown the sender has not sent any weather packets the latest 10 day(s).

<< 49 50 51 52 53 54 55 >>
Time Temp. Humidity Pressure Rain* Wind** Luminosity Snow
1788304403 34.44° C 41% 1015.1 hPa 0 mm - 26 W/m² -
1788304099 34.44° C 40% 1015.3 hPa 0 mm - 31 W/m² -
1788303798 35° C 38% 1015.2 hPa 0 mm - 36 W/m² -
1788303494 35.56° C 37% 1015.3 hPa 0 mm - 41 W/m² -
1788303193 35.56° C 36% 1015.4 hPa 0 mm - 45 W/m² -
1788302889 36.11° C 36% 1015.4 hPa 0 mm - 67 W/m² -
1788302585 36.11° C 36% 1015.3 hPa 0 mm - 71 W/m² -
1788302282 36.67° C 35% 1015.5 hPa 0 mm - 103 W/m² -
1788301981 36.67° C 35% 1015.4 hPa 0 mm - 112 W/m² -
1788301677 36.67° C 35% 1015.4 hPa 0 mm - 121 W/m² -
1788301374 36.11° C 36% 1015.2 hPa 0 mm - 128 W/m² -
1788301069 35.56° C 38% 1015.3 hPa 0 mm - 146 W/m² -
1788300764 35.56° C 37% 1015.3 hPa 0 mm - 160 W/m² -
1788300465 35.56° C 37% 1015.3 hPa 0 mm - 102 W/m² -
1788300164 36.11° C 36% 1015.2 hPa 0 mm - 101 W/m² -
1788299863 36.67° C 35% 1015.2 hPa 0 mm - 96 W/m² -
1788299563 36.67° C 34% 1015.1 hPa 0 mm - 215 W/m² -
1788299261 36.11° C 34% 1015.2 hPa 0 mm - 255 W/m² -
1788298960 36.67° C 34% 1015.2 hPa 0 mm - 115 W/m² -
1788298655 36.67° C 33% 1015.2 hPa 0 mm - 207 W/m² -
1788298355 37.22° C 33% 1015.2 hPa 0 mm - 139 W/m² -
1788298055 37.22° C 33% 1015.3 hPa 0 mm - 343 W/m² -
1788297750 37.22° C 33% 1015.1 hPa 0 mm - 136 W/m² -
1788297445 37.22° C 34% 1015.2 hPa 0 mm - 376 W/m² -
1788297142 37.78° C 33% 1015.2 hPa 0 mm - 389 W/m² -

* Rain latest hour (hover to see other rain measurements)
** Current wind speed in m/s (hover to see current wind gust speed)